Tracking 21612 objects as of 20-Oct-2020
HD Live streaming from Space Station
objects crossing your sky now

COSMOS 1363

Track COSMOS 1363 now!
10-day predictions
COSMOS 1363 is classified as:


NORAD ID: 13166
Int'l Code: 1982-040G
Perigee: 1,480.4 km
Apogee: 1,512.2 km
Inclination: 74.0 °
Period: 115.7 minutes
Semi major axis: 7867 km
RCS: 0.7318 m2 (medium)
Launch date: May 6, 1982
Source: Commonwealth of Independent States (former USSR) (CIS)
Launch site: PLESETSK MISSILE AND SPACE COMPLEX (PKMTR)
aabbcc
Your satellite tracking list
Your tracking list is empty




NASA's NSSDC Master Catalog

Two Line Element Set (TLE):
1 13166U 82040G   20293.41625019 -.00000019  00000-0 -21104-4 0  9999
2 13166  74.0142  25.6681 0020159 263.0528 164.3413 12.44124438746752
Source of the keplerian elements: AFSPC